Tracking 19730 objects as of 27-Jun-2019
HD Live streaming from Space Station
objects crossing your sky now

SL-8 DEB

Track SL-8 DEB now!
10-day predictions


NORAD ID: 18552
Int'l Code: 1986-086C
Perigee: 836.9 km
Apogee: 882.2 km
Inclination: 82.9 °
Period: 102.0 minutes
Semi major axis: 7230 km
RCS: 0.0125 m2 (small)
Launch date: November 13, 1986
Source: Commonwealth of Independent States (former USSR) (CIS)
Launch site: PLESETSK MISSILE AND SPACE COMPLEX (PKMTR)

Note: This is SATELLITE DEBRIS
aabbcc
Your satellite tracking list
Your tracking list is empty




NASA's NSSDC Master Catalog

Two Line Element Set (TLE):
1 18552U 86086C   19177.99073161  .00000498  00000-0  26195-3 0  9997
2 18552  82.9234 358.1856 0031343   6.0990 151.1678 14.12031320662667
Source of the keplerian elements: AFSPC